When you browse on this site, cookies collect data to enhance your experience and personalize the content and advertising you see.
Visit our Privacy Policy to learn more. By continuing to use the site, you agree to this use of cookies and data.
  • In Spain
  • List of Countries
  • For 7 days
  • Water Temperature
  • Satellite Maps
  • Weather Map
  • Weather Widgets
  • user-avatar
    Login

    Hourly Weather Imphal

    Today, 17 February, Sunday

    Time Temperature Precipitation Wind Pressure Humidity
    00:00 +13°C° 0 mm 1 mps 690 mmHg 78%
    01:00 +13°C° 0 mm 1 mps 690 mmHg 80%
    02:00 +12°C° 0 mm 1 mps 690 mmHg 81%
    03:00 +12°C° 0 mm 1 mps 690 mmHg 83%
    04:00 +12°C° 0 mm 1 mps 690 mmHg 86%
    05:00 +11°C° 0 mm 1 mps 690 mmHg 88%
    06:00 +11°C° 0 mm 1 mps 690 mmHg 96%
    07:00 +14°C° 0 mm 1 mps 691 mmHg 83%
    08:00 +16°C° 0 mm 2 mps 691 mmHg 70%
    09:00 +19°C° 0 mm 3 mps 692 mmHg 57%
    10:00 +20°C° 0.1 mm 3 mps 692 mmHg 53%
    11:00 +21°C° 0.1 mm 4 mps 692 mmHg 50%
    12:00 +22°C° 0 mm 3 mps 691 mmHg 49%
    13:00 +21°C° 0.5 mm 3 mps 691 mmHg 52%
    14:00 +21°C° 0.5 mm 3 mps 690 mmHg 55%
    15:00 +21°C° 0.5 mm 4 mps 690 mmHg 57%
    16:00 +18°C° 0.3 mm 3 mps 689 mmHg 69%
    17:00 +16°C° 0.3 mm 2 mps 689 mmHg 80%
    18:00 +14°C° 0.3 mm 1 mps 689 mmHg 91%
    19:00 +13°C° 0.1 mm 1 mps 689 mmHg 92%
    20:00 +13°C° 0.1 mm 1 mps 690 mmHg 93%
    21:00 +12°C° 0.1 mm 1 mps 690 mmHg 94%
    22:00 +12°C° 0 mm 1 mps 690 mmHg 94%
    23:00 +12°C° 0 mm 1 mps 690 mmHg 94%

    Tomorrow, 18 February, Monday

    Time Temperature Precipitation Wind Pressure Humidity
    00:00 +12°C° 0 mm 1 mps 690 mmHg 94%
    01:00 +11°C° 0 mm 1 mps 690 mmHg 93%
    02:00 +11°C° 0 mm 1 mps 690 mmHg 93%
    03:00 +11°C° 0 mm 1 mps 690 mmHg 93%
    04:00 +10°C° 0 mm 1 mps 690 mmHg 92%
    05:00 +9°C° 0 mm 0 mps 690 mmHg 92%
    06:00 +9°C° 0 mm 0 mps 691 mmHg 92%
    07:00 +12°C° 0 mm 0 mps 691 mmHg 82%
    08:00 +16°C° 0 mm 1 mps 692 mmHg 72%
    09:00 +20°C° 0 mm 1 mps 693 mmHg 62%
    10:00 +21°C° 0 mm 1 mps 693 mmHg 53%
    11:00 +21°C° 0 mm 2 mps 693 mmHg 44%
    12:00 +24°C° 0 mm 3 mps 693 mmHg 35%
    13:00 +24°C° 0 mm 3 mps 692 mmHg 34%
    14:00 +24°C° 0 mm 3 mps 691 mmHg 33%
    15:00 +24°C° 0 mm 3 mps 690 mmHg 32%
    16:00 +21°C° 0 mm 3 mps 690 mmHg 40%
    17:00 +18°C° 0 mm 2 mps 690 mmHg 48%
    18:00 +16°C° 0 mm 1 mps 690 mmHg 56%
    19:00 +15°C° 0 mm 1 mps 690 mmHg 60%
    20:00 +13°C° 0 mm 0 mps 691 mmHg 63%
    21:00 +12°C° 0 mm 0 mps 691 mmHg 66%
    22:00 +12°C° 0 mm 0 mps 691 mmHg 68%
    23:00 +11°C° 0 mm 0 mps 692 mmHg 70%

    Day after tomorrow, 19 February, Tuesday

    Time Temperature Precipitation Wind Pressure Humidity
    00:00 +11°C° 0 mm 0 mps 692 mmHg 73%
    01:00 +11°C° 0 mm 0 mps 691 mmHg 73%
    02:00 +10°C° 0 mm 0 mps 691 mmHg 74%
    03:00 +10°C° 0 mm 0 mps 691 mmHg 75%
    04:00 +10°C° 0 mm 0 mps 691 mmHg 76%
    05:00 +10°C° 0 mm 0 mps 691 mmHg 77%
    06:00 +9°C° 0 mm 0 mps 692 mmHg 78%
    07:00 +13°C° 0 mm 0 mps 693 mmHg 67%
    08:00 +18°C° 0 mm 1 mps 694 mmHg 56%
    09:00 +21°C° 0 mm 1 mps 695 mmHg 44%
    10:00 +23°C° 0 mm 2 mps 695 mmHg 39%
    11:00 +24°C° 0 mm 2 mps 695 mmHg 35%
    12:00 +25°C° 0 mm 3 mps 695 mmHg 30%
    13:00 +25°C° 0 mm 3 mps 694 mmHg 30%
    14:00 +25°C° 0 mm 4 mps 693 mmHg 31%
    15:00 +25°C° 0 mm 4 mps 693 mmHg 31%
    16:00 +22°C° 0 mm 3 mps 693 mmHg 38%
    17:00 +19°C° 0 mm 2 mps 692 mmHg 45%
    18:00 +18°C° 0 mm 1 mps 692 mmHg 53%
    19:00 +16°C° 0 mm 1 mps 693 mmHg 56%
    20:00 +15°C° 0 mm 1 mps 694 mmHg 59%
    21:00 +13°C° 0 mm 0 mps 694 mmHg 62%
    22:00 +13°C° 0 mm 0 mps 694 mmHg 65%
    23:00 +12°C° 0 mm 0 mps 694 mmHg 67%

    20 February, Wednesday

    Time Temperature Precipitation Wind Pressure Humidity
    00:00 +12°C° 0 mm 0 mps 694 mmHg 70%
    01:00 +12°C° 0 mm 0 mps 694 mmHg 73%
    02:00 +11°C° 0 mm 0 mps 693 mmHg 76%
    03:00 +11°C° 0 mm 0 mps 693 mmHg 79%
    04:00 +11°C° 0 mm 0 mps 693 mmHg 80%
    05:00 +11°C° 0 mm 0 mps 693 mmHg 81%
    06:00 +11°C° 0 mm 0 mps 693 mmHg 83%
    07:00 +14°C° 0 mm 0 mps 695 mmHg 71%
    08:00 +19°C° 0 mm 1 mps 696 mmHg 59%
    09:00 +22°C° 0 mm 1 mps 697 mmHg 47%
    10:00 +24°C° 0 mm 2 mps 696 mmHg 42%
    11:00 +25°C° 0 mm 2 mps 696 mmHg 36%
    12:00 +26°C° 0 mm 3 mps 696 mmHg 31%
    13:00 +26°C° 0 mm 3 mps 695 mmHg 31%
    14:00 +26°C° 0 mm 3 mps 695 mmHg 31%
    15:00 +26°C° 0 mm 3 mps 694 mmHg 30%
    16:00 +24°C° 0 mm 3 mps 694 mmHg 38%
    17:00 +20°C° 0 mm 2 mps 694 mmHg 46%
    18:00 +19°C° 0 mm 1 mps 694 mmHg 54%
    19:00 +18°C° 0 mm 1 mps 694 mmHg 58%
    20:00 +16°C° 0 mm 1 mps 695 mmHg 63%
    21:00 +15°C° 0 mm 1 mps 696 mmHg 67%
    22:00 +13°C° 0 mm 0 mps 696 mmHg 69%
    23:00 +13°C° 0 mm 0 mps 696 mmHg 71%

    21 February, Thursday

    Time Temperature Precipitation Wind Pressure Humidity
    00:00 +12°C° 0 mm 0 mps 696 mmHg 73%
    01:00 +12°C° 0 mm 0 mps 695 mmHg 74%
    02:00 +12°C° 0 mm 0 mps 695 mmHg 76%
    03:00 +11°C° 0 mm 0 mps 695 mmHg 77%
    04:00 +11°C° 0 mm 0 mps 695 mmHg 78%
    05:00 +11°C° 0 mm 0 mps 695 mmHg 78%
    06:00 +11°C° 0 mm 0 mps 695 mmHg 78%
    07:00 +14°C° 0 mm 0 mps 696 mmHg 67%
    08:00 +18°C° 0 mm 0 mps 697 mmHg 55%
    09:00 +22°C° 0 mm 0 mps 698 mmHg 44%
    10:00 +25°C° 0 mm 1 mps 698 mmHg 38%
    11:00 +26°C° 0 mm 1 mps 697 mmHg 33%
    12:00 +28°C° 0 mm 2 mps 697 mmHg 27%
    13:00 +28°C° 0 mm 2 mps 696 mmHg 27%
    14:00 +28°C° 0 mm 2 mps 695 mmHg 27%
    15:00 +28°C° 0 mm 3 mps 694 mmHg 26%
    16:00 +25°C° 0 mm 2 mps 694 mmHg 33%
    17:00 +23°C° 0 mm 1 mps 694 mmHg 40%
    18:00 +20°C° 0 mm 1 mps 693 mmHg 47%
    19:00 +19°C° 0 mm 1 mps 693 mmHg 51%
    20:00 +18°C° 0 mm 1 mps 694 mmHg 54%
    21:00 +16°C° 0 mm 1 mps 694 mmHg 58%
    22:00 +15°C° 0 mm 1 mps 694 mmHg 59%
    23:00 +15°C° 0 mm 1 mps 693 mmHg 60%

    22 February, Friday

    Time Temperature Precipitation Wind Pressure Humidity
    00:00 +15°C° 0 mm 1 mps 693 mmHg 61%
    01:00 +14°C° 0 mm 1 mps 693 mmHg 62%
    02:00 +14°C° 0 mm 1 mps 692 mmHg 63%
    03:00 +13°C° 0 mm 0 mps 692 mmHg 63%
    04:00 +12°C° 0 mm 0 mps 692 mmHg 64%
    05:00 +12°C° 0 mm 0 mps 692 mmHg 65%
    06:00 +13°C° 0 mm 1 mps 692 mmHg 66%
    07:00 +16°C° 0 mm 0 mps 693 mmHg 58%
    08:00 +19°C° 0 mm 0 mps 694 mmHg 49%
    09:00 +23°C° 0 mm 0 mps 695 mmHg 41%
    10:00 +26°C° 0 mm 1 mps 695 mmHg 36%
    11:00 +27°C° 0 mm 1 mps 694 mmHg 32%
    12:00 +29°C° 0 mm 2 mps 694 mmHg 28%
    13:00 +29°C° 0 mm 2 mps 693 mmHg 28%
    14:00 +29°C° 0 mm 2 mps 692 mmHg 27%
    15:00 +29°C° 0 mm 3 mps 692 mmHg 26%
    16:00 +26°C° 0 mm 2 mps 691 mmHg 34%
    17:00 +24°C° 0 mm 2 mps 691 mmHg 41%
    18:00 +21°C° 0 mm 1 mps 691 mmHg 48%
    19:00 +20°C° 0 mm 1 mps 691 mmHg 53%
    20:00 +19°C° 0 mm 1 mps 691 mmHg 57%
    21:00 +16°C° 0 mm 0 mps 692 mmHg 61%
    22:00 +15°C° 0 mm 0 mps 692 mmHg 64%
    23:00 +16°C° 0 mm 1 mps 692 mmHg 66%
    Show more